Dewpoint
45 46 47 49 52 51 50 45 37 51 54 41 34 39 36 32 27 24 24 20 14 14 17 15 13 22 23 23 21 21 18 18 20 21 21 21 21 22 16 20 17 23 26 19
44 45 46 48 51 51 49 41 43 53 50 30 36 37 35 31 28 26 27 21 21 17 18 17 16 16 35 34 26 24 23 19 19 20 24 24 21 16 20 20 25 23 20 18
43 45 46 47 51 51 50 40 40 50 50 37 35 36 32 30 30 24 25 23 21 18 18 20 19 20 34 34 31 31 33 23 18 22 19 22 22 18 14 17 22 20 18 13
42 45 45 47 51 51 50 44 39 44 41 41 37 37 33 28 24 27 26 22 18 24 21 22 22 24 35 35 36 32 30 23 21 19 20 24 22 19 18 14 18 16 19 13
41 45 45 47 50 51 47 43 37 42 41 39 39 38 33 27 24 27 27 26 23 24 23 23 23 24 34 32 35 31 32 30 30 29 26 24 22 22 19 16 14 15 13 12
43 43 43 47 49 50 46 44 47 41 41 38 39 39 32 28 25 26 28 26 25 23 32 35 38 38 35 32 35 33 34 35 31 27 27 27 22 25 23 21 17 14 14 16
43 43 43 46 49 50 45 44 45 42 38 37 38 37 32 26 24 30 31 30 27 39 38 38 37 35 35 36 37 36 39 37 32 27 26 16 16 20 18 19 18 16 14 15
43 44 45 48 49 50 49 46 48 45 40 39 35 37 33 26 25 31 32 41 41 40 38 37 35 36 32 31 29 32 35 35 32 29 23 18 18 14 15 15 15 20 21 21
44 45 46 46 48 50 49 50 54 52 43 40 34 31 29 28 36 41 43 41 42 40 42 37 26 27 25 29 32 29 30 37 32 26 25 18 25 23 26 23 15 22 22 23
44 45 46 46 45 48 49 49 55 55 45 39 33 29 28 29 41 41 41 43 42 44 45 37 30 30 28 29 31 33 34 33 27 30 28 29 23 24 24 17 25 29 29 27
46 45 45 46 45 46 49 49 53 54 44 36 35 31 27 30 39 42 43 41 41 42 37 36 37 36 33 28 28 32 30 34 31 35 33 24 23 24 24 33 31 29 29 30
45 45 45 45 45 48 49 48 52 57 53 47 50 49 47 41 32 42 45 38 42 44 37 38 40 37 37 35 30 30 29 31 32 31 31 30 24 25 26 28 29 30 30 31
46 47 46 46 47 49 49 49 51 54 48 47 42 43 48 49 50 53 42 42 41 41 47 48 46 38 43 33 37 31 31 32 31 28 21 24 25 26 27 28 30 32 34 36
46 47 47 48 48 48 49 49 54 54 48 43 47 49 47 48 48 50 50 48 49 49 49 49 41 40 41 40 37 35 34 31 28 27 28 26 25 33 34 35 36 38 40 39
47 47 47 47 48 48 50 51 53 54 40 43 47 47 47 47 47 47 48 48 47 46 44 33 41 41 42 43 40 35 33 29 29 31 35 35 34 38 40 39 37 36 35 33
47 47 47 47 49 50 50 49 51 54 50 48 44 48 46 45 46 46 45 47 45 44 47 46 41 41 41 36 33 30 36 37 37 36 39 39 39 36 36 35 35 35 35 35
47 47 48 49 49 50 50 45 50 49 53 46 44 44 46 46 46 46 45 46 44 44 44 47 43 40 42 40 33 36 36 37 38 38 40 37 36 34 36 37 36 36 36 36
47 48 49 49 49 49 49 48 48 51 47 47 42 43 45 47 48 46 47 47 45 45 44 45 44 42 45 39 36 35 36 37 37 36 35 35 35 36 36 36 35 34 33 33
48 48 49 49 48 48 49 46 49 53 48 42 43 40 40 46 44 45 47 46 43 44 41 42 42 39 39 38 36 35 36 38 36 34 35 35 35 35 35 34 33 32 32 31
48 49 45 44 49 47 46 46 44 43 45 46 42 44 42 43 42 41 42 43 41 37 39 41 40 38 34 35 36 36 36 38 36 34 33 34 34 33 33 33 33 35 34 32
48 45 46 48 46 46 44 39 40 40 39 41 41 42 42 44 41 38 42 40 41 35 38 37 35 35 34 35 36 36 36 35 36 36 36 35 34 33 34 34 32 30 30 29
49 47 48 47 44 42 35 36 38 40 38 38 38 40 41 42 44 39 40 35 37 33 38 35 32 34 34 35 36 35 35 34 34 34 33 33 34 32 31 30 31 31 31 31
46 42 38 40 39 34 34 30 34 34 35 37 39 37 41 41 41 38 37 34 34 37 34 31 33 34 34 36 35 34 33 33 32 29 28 29 31 33 31 31 31 33 32 30
40 37 32 35 32 31 30 31 32 33 34 38 39 37 38 39 36 37 33 34 35 32 29 31 32 33 35 34 34 32 29 28 27 28 31 31 30 30 30 30 30 29 27 26
34 35 29 29 31 32 32 33 33 34 37 38 39 39 39 36 34 34 33 31 30 30 30 32 33 35 35 33 33 29 29 31 31 31 31 31 30 29 28 28 27 27 26 25
33 31 30 32 32 31 31 32 32 35 36 39 39 36 34 32 34 32 32 32 30 30 31 32 34 35 36 36 33 29 30 33 32 32 31 30 29 28 26 24 25 25 22 21
32 30 32 32 31 29 30 32 33 36 35 32 34 31 29 33 31 29 31 28 30 31 32 34 35 35 34 33 33 32 33 32 32 30 29 28 28 26 23 19 17 18 21 17
Wind_Speed
25 30 30 31 31 37 30 20 12 24 32 18 20 24 26 28 25 11 11 16 20 19 16 17 17 8 18 11 8 8 10 4 8 10 6 4 10 11 15 9 9 3 1 12
27 31 32 33 35 41 20 22 15 21 19 24 23 24 30 31 28 17 18 15 18 12 13 12 14 8 5 5 4 2 3 4 9 11 10 8 10 14 11 6 3 7 5 6
27 31 33 36 38 42 23 19 19 10 17 19 27 31 30 30 28 19 17 18 14 11 12 11 11 9 4 4 3 4 4 7 11 12 14 8 17 15 15 15 7 8 16 19
28 30 34 35 37 41 21 13 18 15 24 30 27 29 25 31 20 17 20 21 22 14 12 13 12 10 8 4 2 2 3 10 14 18 19 3 14 9 13 17 14 18 14 17
32 35 34 36 37 40 22 15 19 19 20 27 29 31 36 32 26 20 16 17 15 18 13 13 14 15 10 8 9 10 5 3 4 6 11 16 15 17 15 17 16 17 19 18
34 36 34 33 36 34 17 19 11 13 24 32 32 31 31 31 25 23 19 23 19 20 9 12 12 12 7 6 13 12 9 4 3 5 4 8 10 15 20 20 18 14 16 13
37 33 35 31 35 43 17 21 10 11 31 35 36 31 30 27 28 15 11 14 17 11 18 18 16 15 10 9 5 8 5 6 4 1 2 4 11 1 5 6 11 14 16 13
32 32 30 28 32 40 30 16 5 8 21 28 36 32 32 28 26 17 15 8 9 19 12 5 5 3 3 3 4 4 7 6 3 5 8 10 13 3 2 1 4 12 10 12
31 32 30 24 20 36 31 20 4 8 17 30 38 29 26 19 13 10 5 10 9 7 4 4 5 6 7 7 6 4 3 5 4 4 3 5 1 3 3 1 5 9 10 10
31 32 30 28 25 26 27 15 12 8 14 20 32 24 24 19 15 12 13 5 4 3 4 4 6 5 4 7 8 6 4 3 8 5 4 7 1 4 2 3 3 6 6 8
30 29 29 28 29 24 27 23 21 8 7 17 16 16 21 12 16 12 14 8 4 5 5 6 4 2 5 4 6 7 7 9 5 3 3 8 5 5 2 5 4 9 8 8
29 27 29 31 25 25 24 19 19 19 16 6 13 16 12 3 9 12 16 9 14 10 7 3 4 2 2 3 4 4 3 6 4 10 4 5 6 4 4 1 3 5 6 8
30 31 33 26 25 23 26 23 17 15 10 8 8 6 9 13 10 6 7 6 11 9 3 6 4 4 6 6 6 5 5 4 2 1 4 7 10 4 6 1 3 7 9 10
31 28 26 24 22 26 30 25 22 17 9 8 5 2 4 5 4 4 4 3 8 10 8 5 5 5 6 6 2 5 1 10 8 8 11 8 1 12 12 9 8 9 12 13
24 27 27 27 25 23 22 20 15 17 1 5 8 7 3 1 3 7 3 7 11 7 5 4 4 4 6 3 2 3 8 6 7 5 8 4 8 12 9 11 12 11 10 13
27 26 27 25 25 26 9 7 7 9 7 6 4 3 2 6 10 10 10 10 8 6 5 4 5 2 4 6 6 6 12 10 6 3 6 4 13 15 16 15 13 15 16 16
30 29 26 25 27 18 5 2 4 15 6 5 7 6 1 8 12 8 7 4 4 4 5 3 5 4 4 6 6 11 8 6 7 6 4 10 10 10 14 17 16 18 18 17
27 25 25 24 21 14 2 7 7 8 7 6 3 3 6 4 5 4 3 5 5 8 4 2 4 4 1 4 10 9 6 5 7 8 13 15 15 16 15 15 14 16 15 13
33 33 32 16 11 4 3 3 5 11 8 5 2 10 7 5 4 3 2 1 4 3 3 2 6 3 4 7 10 7 5 3 9 11 11 12 14 14 14 14 13 15 12 10
40 31 8 7 4 4 2 1 5 8 7 6 4 5 5 3 3 3 3 3 4 3 2 3 3 4 8 6 8 9 7 8 12 12 12 13 12 14 13 13 14 14 13 11
10 5 5 5 5 2 4 4 2 4 3 1 3 3 6 4 4 5 3 4 3 5 4 8 6 5 9 9 11 7 8 11 14 17 17 17 15 13 14 12 12 11 11 9
10 17 9 3 4 5 5 2 3 2 4 3 3 3 5 3 1 5 3 3 1 3 8 6 6 6 14 13 10 10 13 16 18 18 17 15 15 13 13 11 10 9 9 9
7 8 6 4 4 5 4 7 5 6 1 2 4 5 3 3 5 5 3 4 4 9 4 4 2 13 12 13 13 14 16 16 19 19 17 16 15 14 13 11 8 7 13 11
8 5 6 5 3 2 0 1 2 1 2 3 4 5 4 3 4 2 5 2 3 5 5 4 9 14 13 11 11 16 16 17 18 15 15 15 14 13 12 11 9 9 9 8
7 6 5 3 3 3 2 2 2 6 3 3 3 6 5 5 5 3 5 3 4 5 2 3 10 14 14 12 12 17 15 16 15 13 13 13 12 11 10 8 8 8 8 9
6 7 5 1 5 6 6 7 5 7 4 3 5 4 5 6 4 2 2 3 1 2 3 7 14 15 9 12 14 14 12 13 16 14 12 11 10 9 9 9 7 9 10 9
5 6 6 6 8 9 6 6 7 7 4 5 4 5 3 1 3 3 4 3 2 6 9 10 14 11 13 14 13 13 15 16 15 13 11 10 8 7 6 7 8 5 8 8
Wind_Direction
227 219 206 198 179 169 181 185 204 140 144 174 206 221 217 228 237 205 245 254 219 222 202 193 223 168 260 173 216 212 247 302 263 235 266 285 310 285 211 216 260 198 233 274
222 218 206 197 179 173 181 184 182 165 179 195 201 213 224 228 236 194 222 236 245 206 240 188 221 227 84 86 178 237 253 230 257 282 197 218 248 252 263 245 102 216 208 256
218 217 205 199 180 180 203 176 185 162 208 223 198 201 215 222 237 232 211 226 228 197 222 209 206 208 109 119 115 55 341 239 246 238 250 322 204 238 239 233 187 239 256 271
217 224 200 196 182 186 201 201 205 177 188 200 200 201 215 212 205 218 218 213 215 195 205 199 216 201 122 126 117 173 216 241 261 268 260 258 295 263 233 236 231 238 251 259
215 212 195 192 180 191 208 198 200 165 178 191 200 208 215 215 197 194 211 230 208 200 198 224 197 220 159 179 178 197 200 235 304 293 288 286 270 275 268 274 264 253 266 265
209 194 187 191 181 185 202 220 273 197 173 187 200 211 206 217 195 204 209 213 199 216 143 83 63 59 162 205 167 195 171 172 169 243 13 343 298 256 254 265 266 259 260 272
199 189 186 192 189 196 213 208 246 222 179 183 200 206 208 206 212 182 188 218 221 113 110 87 73 76 77 85 50 193 135 162 165 201 126 259 252 341 313 281 282 276 281 289
187 182 176 189 192 198 223 211 244 248 190 187 193 200 206 205 208 179 175 37 99 143 113 106 114 74 72 132 133 134 164 153 185 182 214 273 309 221 325 291 327 27 27 25
182 177 175 185 205 203 220 254 287 274 195 199 190 196 186 200 162 112 69 105 121 152 118 145 174 173 202 162 141 120 101 70 193 168 221 232 136 65 9 359 216 59 39 30
180 174 172 185 195 226 210 236 208 256 217 194 185 189 181 209 138 126 139 150 127 315 124 149 171 179 200 153 167 182 122 159 198 178 232 287 80 118 329 234 89 54 10 353
165 170 177 191 205 217 209 231 252 260 247 162 182 180 186 192 166 147 147 153 162 157 153 165 143 129 186 164 169 166 171 163 189 173 187 259 143 120 148 66 357 5 350 350
179 176 186 194 204 207 201 237 241 247 247 87 67 75 44 84 222 152 171 177 161 174 174 149 122 123 107 122 202 159 190 188 192 180 225 151 186 28 28 352 321 324 322 320
181 180 191 185 190 191 190 224 263 264 95 85 95 95 54 50 37 31 174 218 182 161 84 131 114 147 162 156 212 202 204 110 192 47 236 210 211 226 299 46 340 358 348 331
181 184 183 188 185 195 191 212 263 315 85 112 105 109 83 8 20 73 18 3 60 109 105 107 139 140 215 181 238 165 228 155 204 222 257 283 60 54 50 34 4 17 19 34
170 183 184 187 186 188 194 228 271 302 138 114 115 100 29 270 185 170 168 145 129 133 125 122 133 121 112 65 69 201 193 225 200 218 71 16 32 58 41 61 54 43 42 61
171 175 181 179 172 167 159 236 214 320 74 102 116 90 63 159 172 174 181 175 187 176 120 116 97 87 137 148 178 129 77 74 42 34 27 42 79 71 71 76 68 64 64 62
167 171 169 163 163 161 219 294 324 327 343 91 118 117 140 114 105 107 120 175 145 142 109 104 139 123 129 143 179 120 94 81 71 35 328 105 59 98 92 88 83 77 74 74
154 153 147 149 140 121 194 355 353 330 80 60 112 119 133 213 131 119 318 149 128 29 90 89 105 85 107 188 119 111 84 129 93 76 74 92 99 94 90 93 98 91 89 92
138 135 130 125 167 193 70 242 340 50 69 84 219 163 148 126 71 91 95 214 116 98 91 95 116 166 173 107 132 109 83 104 125 104 96 96 100 100 101 100 95 95 93 87
133 135 122 128 92 121 129 108 31 33 17 58 282 354 136 61 127 90 106 8 115 104 137 165 177 123 107 106 102 105 80 114 126 130 129 119 110 107 107 105 81 70 68 60
132 88 70 97 127 177 51 62 101 91 344 278 237 174 123 0 111 117 35 96 35 161 160 170 171 192 166 139 103 100 95 89 84 94 98 112 123 123 103 87 74 63 59 52
93 109 107 118 44 69 85 48 32 232 192 217 159 59 85 47 96 92 141 110 92 144 137 163 187 124 136 121 127 121 107 107 105 105 106 108 102 96 85 81 76 76 82 64
78 59 65 42 2 63 167 168 207 179 287 249 173 115 97 95 76 95 118 132 141 128 135 195 81 137 141 149 142 132 129 124 114 105 97 94 87 78 87 86 64 83 76 56
61 65 87 43 74 106 213 354 68 50 343 42 104 79 84 87 76 101 107 109 151 168 203 201 158 156 147 149 148 127 109 98 99 105 106 102 98 91 83 79 79 81 71 59
65 50 78 92 146 59 13 333 61 0 322 295 104 63 76 58 92 64 116 128 182 212 192 96 139 139 143 146 135 116 116 115 113 114 113 116 113 107 98 86 86 80 70 57
53 47 85 53 89 57 42 29 44 360 347 338 43 78 71 52 53 76 70 182 182 94 87 123 130 129 131 122 125 140 140 114 114 113 114 116 121 118 115 105 91 92 65 43
49 40 16 54 70 58 38 17 359 323 48 52 25 56 75 133 78 73 24 40 54 121 116 126 136 152 139 130 113 115 116 113 109 113 116 118 119 122 108 78 52 57 89 37